MST,Max TemperatureF,Mean TemperatureF,Min TemperatureF,Max Dew PointF,MeanDew PointF,Min DewpointF,Max Humidity, Mean Humidity, Min Humidity, Max Sea Level PressureIn, Mean Sea Level PressureIn, Min Sea Level PressureIn, Max VisibilityMiles, Mean VisibilityMiles, Min VisibilityMiles, Max Wind SpeedMPH, Mean Wind SpeedMPH, Max Gust SpeedMPH,PrecipitationIn, CloudCover, Events, WindDirDegrees
2012-12-1,64,50,37,32,27,23,65,42,21,30.03,29.96,29.84,20,10,10,23,8,30,0.00,1,,247
2012-12-2,71,52,33,25,17,9,56,28,9,30.00,29.88,29.66,20,11,10,20,11,28,0.00,1,,211
2012-12-3,59,46,32,32,21,7,65,38,15,30.18,29.93,29.67,20,11,10,38,14,45,0.00,1,,307
2012-12-4,59,42,26,19,18,10,69,49,16,30.33,30.24,30.16,10,10,10,13,9,,0.00,1,,208
2012-12-5,68,54,41,30,26,19,53,39,21,30.17,30.00,29.88,10,10,10,24,9,30,0.00,1,,228
2012-12-6,50,42,33,36,30,28,87,63,43,30.06,29.93,29.87,10,10,10,14,8,,0.00,2,,147
2012-12-7,53,40,28,30,26,21,93,65,30,29.94,29.86,29.79,20,10,10,20,8,24,0.00,3,,141
2012-12-8,53,40,26,27,21,9,86,57,24,29.89,29.75,29.62,20,9,1,29,13,34,0.00,3,Snow,82
2012-12-9,28,16,5,10,5,0,78,55,31,30.16,30.00,29.88,10,10,10,31,15,40,0.00,5,,25
2012-12-10,39,26,12,27,8,0,100,52,21,29.97,29.89,29.81,20,9,1,15,11,18,0.00,4,Snow,216
2012-12-11,37,24,12,25,18,10,100,86,48,29.98,29.94,29.79,10,8,2,12,6,,0.00,5,Snow,182
2012-12-12,59,46,33,19,18,16,56,37,19,29.84,29.80,29.75,,,,17,11,23,0.00,4,,201
2012-12-13,55,44,32,21,17,9,64,45,15,29.99,29.93,29.89,10,10,10,15,10,,0.00,3,,202
2012-12-14,44,36,28,25,19,14,74,57,36,29.87,29.70,29.50,10,10,10,15,8,,0.00,2,,231
2012-12-15,48,38,26,30,23,19,93,65,37,29.73,29.66,29.61,20,11,10,13,9,,0.00,2,,208
2012-12-16,42,30,19,28,22,9,100,76,36,29.78,29.71,29.65,20,5,0,15,7,,0.00,5,Fog-Snow,248
2012-12-17,53,38,23,18,14,10,63,44,22,29.77,29.67,29.60,20,11,10,29,13,37,0.00,1,,217
2012-12-18,42,32,21,27,22,14,93,74,48,29.77,29.70,29.64,20,10,10,13,7,,0.00,4,,233
2012-12-19,24,17,10,23,15,1,100,84,57,30.10,29.81,29.63,10,8,0,29,13,37,0.00,4,Snow,313
2012-12-20,46,26,5,18,4,-6,66,40,27,30.19,30.14,30.09,10,10,10,20,12,23,0.00,0,,219
2012-12-21,48,32,15,25,12,3,86,46,24,30.19,30.13,30.06,10,10,10,20,12,,0.00,2,,193
2012-12-22,50,37,24,23,15,7,64,41,20,30.04,29.99,29.89,20,10,10,20,11,,0.00,1,,181
2012-12-23,53,40,28,25,12,1,75,39,21,29.96,29.89,29.84,20,11,10,18,13,20,0.00,1,,181
2012-12-24,35,27,19,23,20,16,93,75,55,29.91,29.80,29.68,20,7,1,18,10,23,0.00,4,Snow,118
2012-12-25,19,11,3,18,7,1,93,86,68,30.17,30.03,29.89,10,6,1,13,8,16,0.00,5,Snow,104
2012-12-26,24,12,1,16,6,-2,92,84,69,29.97,29.78,29.60,20,10,7,9,5,,0.00,2,,190
2012-12-27,30,18,6,21,12,3,93,85,69,29.85,29.69,29.60,20,9,3,12,8,,0.00,2,Snow,226
2012-12-28,30,16,3,30,8,0,100,73,43,30.08,29.93,29.84,10,10,10,14,6,,0.00,3,,206
2012-12-29,37,22,8,21,4,-4,73,61,41,30.11,30.03,29.87,20,11,10,14,10,,0.00,1,,202
2012-12-30,41,28,14,21,12,1,79,55,30,29.99,29.91,29.86,20,10,10,24,9,30,0.00,1,,160
2012-12-31,23,18,10,18,13,9,93,82,73,29.98,29.93,29.91,20,12,0,7,3,,0.00,6,Fog,144